Monticello, AR

5:04 AM CDT on August 30, 2016 (GMT -0500)
Monticello Municipal-Ellis

Weather History for KLLQ - November, 2012

Change the Weather History Date:

Saturday, November 17, 2012

  Actual Average Record
Temperature  
Mean Temperature 50 °F -  
Max Temperature 64 °F 62 °F 81 °F (1964)
Min Temperature 35 °F 39 °F 22 °F (1989)
Degree Days  
Heating Degree Days 16    
Moisture  
Dew Point 35 °F    
Average Humidity 67    
Maximum Humidity 89    
Minimum Humidity 31    
Precipitation  
Precipitation 0.00 in - - ()
Sea Level Pressure  
Sea Level Pressure 30.39 in    
Wind  
Wind Speed 1 mph (NE)    
Max Wind Speed 7 mph    
Max Gust Speed -    
Visibility 10 miles    
Events      
Averages and records for this station are not official NWS values.
T = Trace of Precipitation, MM = Missing Value Source: NWS Daily Summary

Daily Weather History Graph

Daily Weather History Graph

Search for Another Location

Airport or City:

Trip Planner

Search our weather history database for the weather conditions in past years. The results will help you decide how hot, cold, wet, or windy it might be!

Date:

Astronomy

Nov. 17, 2012 Rise Set
Actual Time 6:41 AM CST 5:02 PM CST
Civil Twilight 6:14 AM CST 5:29 PM CST
Nautical Twilight 5:44 AM CST 5:59 PM CST
Astronomical Twilight 5:14 AM CST 6:29 PM CST
Moon 10:25 AM CST (11/17) 9:12 PM CST (11/17)
Length of Visible Light 11h 14m
Length of Day
10h 21m
Waxing Crescent, 20% of the Moon is Illuminated
Nov 17
Waxing Crescent
Nov 20
First Quarter
Nov 28
Full
Dec 6
Last Quarter
Dec 13
New

Hourly Weather History & Observations

Time (CST) Temp. Dew Point Humidity Pressure Visibility Wind Dir Wind Speed Gust Speed Precip Events Conditions
12:53 AM 41.0 °F 34.0 °F 76% 30.39 in 10.0 mi Calm Calm - N/A   Clear
1:53 AM 36.0 °F 33.1 °F 89% 30.39 in 10.0 mi Calm Calm - N/A   Clear
2:53 AM 37.9 °F 33.1 °F 83% 30.38 in 10.0 mi Calm Calm - N/A   Clear
3:53 AM 36.0 °F 32.0 °F 86% 30.38 in 10.0 mi Calm Calm - N/A   Clear
4:53 AM 37.0 °F 32.0 °F 82% 30.38 in 10.0 mi Calm Calm - N/A   Clear
5:53 AM 37.9 °F 33.1 °F 83% 30.40 in 10.0 mi Calm Calm - N/A   Clear
6:53 AM 35.1 °F 32.0 °F 89% 30.42 in 8.0 mi Calm Calm - N/A   Clear
7:53 AM 42.1 °F 36.0 °F 79% 30.44 in 10.0 mi Calm Calm - N/A   Clear
8:53 AM 46.9 °F 35.1 °F 63% 30.44 in 10.0 mi Variable 4.6 mph - N/A   Clear
9:53 AM 51.1 °F 35.1 °F 54% 30.45 in 10.0 mi East 5.8 mph - N/A   Clear
10:53 AM 55.9 °F 36.0 °F 47% 30.44 in 10.0 mi Variable 3.5 mph - N/A   Clear
11:53 AM 60.1 °F 33.1 °F 36% 30.41 in 10.0 mi ENE 5.8 mph - N/A   Clear
12:53 PM 62.1 °F 32.0 °F 32% 30.38 in 10.0 mi NE 5.8 mph - N/A   Clear
1:53 PM 63.0 °F 32.0 °F 31% 30.36 in 10.0 mi East 6.9 mph - N/A   Clear
2:53 PM 64.0 °F 34.0 °F 33% 30.35 in 10.0 mi Variable 4.6 mph - N/A   Clear
3:53 PM 62.1 °F 35.1 °F 37% 30.35 in 10.0 mi NNE 3.5 mph - N/A   Clear
4:53 PM 57.0 °F 37.0 °F 47% 30.35 in 10.0 mi North 3.5 mph - N/A   Clear
5:53 PM 51.1 °F 39.0 °F 63% 30.34 in 10.0 mi Calm Calm - N/A   Clear
6:53 PM 45.0 °F 37.9 °F 76% 30.35 in 10.0 mi Calm Calm - N/A   Clear
7:53 PM 41.0 °F 37.0 °F 86% 30.37 in 3.0 mi Calm Calm - N/A   Clear
8:53 PM 39.9 °F 36.0 °F 86% 30.38 in 6.0 mi Calm Calm - N/A   Clear
9:53 PM 44.1 °F 37.0 °F 76% 30.37 in 10.0 mi Calm Calm - N/A   Clear
10:53 PM 39.9 °F 36.0 °F 86% 30.37 in 10.0 mi Calm Calm - N/A   Clear
11:53 PM 37.0 °F 34.0 °F 89% 30.36 in 10.0 mi Calm Calm - N/A   Clear